sat.trackr.live / text

‹ back to catalog

GRUS-3ALPHA

NORAD 64579 · 2025-135BD

PAYLOAD ACTIVE UNKNOWN

§ Identity

Operator
Country
JPN
Launch date
2025-06-23
Launch site
AFWTR
Launch vehicle
Mass (kg)
RCS (m²)

External: N2YO · Heavens-Above · Gunter

§ Orbital elements

Epoch: 2026-05-25T05:42:02.058048Z

Period
96.45 min
Inclination
97.7740°
Eccentricity
0.0004344
Mean motion
14.93048422 rev/d
Perigee alt
585.4 km
Apogee alt
591.5 km
Semi-major
6,966.6 km
B*
9.4663e-5
RAAN
259.7709°
Arg perigee
78.3148°
Mean anomaly
281.8559°
Rev number
5,045

§ Raw data

GRUS-3ALPHA1 64579U 25135BD  26145.23752382  .00000929  00000+0  94663-4 0  99982 64579  97.7740 259.7709 0004344  78.3148 281.8559 14.93048422 50451

JSON: /api/v1/satellites/64579 · /tle

For live sub-satellite position, see the globe view (requires WebGL).

§ Visibility from observer

Set your observer location to see the next 7 days of passes ≥ 10°. The values pass through the URL so the page stays shareable.

No JS? Fill the form by hand. The geolocation button needs JavaScript.

§ Radio — SatNOGS DB

ModeDescriptionDownlinkUplink
FM S-band telemetry 2.276 GHz

1 transmitter · refreshed weekly from db.satnogs.org